User: anonymous   Login
Location: Unspecified
(48.5670°N, 0.0000°E)
Time: 09:33:03
(UTC+00:00)
Language:

Tiros 1 - Orbit

View from above orbital plane
View from above orbital plane
View from above satellite
View from above satellite

Ground track
Ground track

The orbit data is extracted from the following two-line orbital elements,

1    29U 60002B   19236.53859706 -.00000149 +00000-0 +88917-5 0  9996
2    29 048.3789 274.5285 0023602 036.8774 323.3756 14.74314346174584
Epoch (UTC): 24 August 2019 12:55:34
Eccentricity: 0.0023602
inclination: 48.3789°
perigee height: 631 km
apogee height: 664 km
right ascension of ascending node: 274.5285°
argument of perigee: 36.8774°
revolutions per day: 14.74314346
mean anomaly at epoch: 323.3756°
orbit number at epoch: 17458

The dashed part of the orbit path shows where the satellite is in the earth's shadow,  

DLR